This is the latest recevied weather packets stored in our database for station/object KD2ZLA. If no packets are shown the sender has not sent any weather packets the latest 10 day(s).
| Time | Temp. | Humidity | Pressure | Rain* | Wind** | Luminosity | Snow |
|---|---|---|---|---|---|---|---|
| 1777526720 | 10° C | 98% | 1003.7 hPa | 1.27 mm | - | 0 W/m² | - |
| 1777526416 | 10° C | 98% | 1003.7 hPa | 2.29 mm | - | 0 W/m² | - |
| 1777526111 | 10° C | 97% | 1003.9 hPa | 3.05 mm | - | 0 W/m² | - |
| 1777525808 | 10° C | 98% | 1003.8 hPa | 1.78 mm | - | 0 W/m² | - |
| 1777525505 | 10° C | 97% | 1003.8 hPa | 1.78 mm | - | 0 W/m² | - |
| 1777525201 | 10° C | 98% | 1004 hPa | 2.29 mm | - | 0 W/m² | - |
| 1777524897 | 10.56° C | 98% | 1003.9 hPa | 3.56 mm | - | 0 W/m² | - |
| 1777524595 | 10.56° C | 98% | 1004 hPa | 3.56 mm | - | 0 W/m² | - |
| 1777524293 | 10° C | 98% | 1004 hPa | 1.78 mm | - | 0 W/m² | - |
| 1777523989 | 10.56° C | 97% | 1004.1 hPa | 1.78 mm | - | 0 W/m² | - |
| 1777523685 | 10.56° C | 98% | 1004.2 hPa | 1.78 mm | - | 0 W/m² | - |
| 1777523381 | 10.56° C | 97% | 1004.2 hPa | 1.78 mm | - | 0 W/m² | - |
| 1777523078 | 10.56° C | 97% | 1004.4 hPa | 1.78 mm | - | 0 W/m² | - |
| 1777522775 | 10.56° C | 97% | 1004.4 hPa | 1.27 mm | - | 0 W/m² | - |
| 1777522471 | 10.56° C | 97% | 1004.3 hPa | 1.27 mm | - | 0 W/m² | - |
| 1777522169 | 10.56° C | 97% | 1004.5 hPa | 1.78 mm | - | 0 W/m² | - |
| 1777521865 | 10.56° C | 97% | 1004.5 hPa | 1.78 mm | - | 0 W/m² | - |
| 1777521561 | 10.56° C | 98% | 1004.6 hPa | 1.27 mm | - | 0 W/m² | - |
| 1777521260 | 10.56° C | 97% | 1004.6 hPa | 3.56 mm | - | 0 W/m² | - |
| 1777520956 | 10.56° C | 97% | 1004.7 hPa | 7.87 mm | - | 0 W/m² | - |
| 1777520653 | 10.56° C | 97% | 1004.7 hPa | 7.11 mm | - | 0 W/m² | - |
| 1777520349 | 10.56° C | 97% | 1004.7 hPa | 4.32 mm | - | 0 W/m² | - |
| 1777520047 | 10.56° C | 97% | 1004.8 hPa | 3.56 mm | - | 0 W/m² | - |
| 1777519744 | 10.56° C | 97% | 1004.8 hPa | 7.11 mm | - | 0 W/m² | - |
| 1777519441 | 10.56° C | 97% | 1004.9 hPa | 7.87 mm | - | 0 W/m² | - |
* Rain latest hour (hover to see other rain measurements)
** Current wind speed in m/s (hover to see current wind gust speed)